Location: Meanaryar
(48.4161°N, 4.7315°W)
Time: 16:56:18
(UTC+00:00)

OBJECT-B - Pass Details

Date: 18 September 2020
Orbit: 421 x 433 km, 97.0° (Epoch: 09 October)

Event Time Altitude Azimuth Distance (km) Brightness Sun altitude
Exits shadow 20:34:37 65° 263° (W) 471 1.1 -21.5°
Drops below altitude 10° 20:37:49 10° 342° (NNW) 1,523 4.2 -21.9°
Sets 20:39:51 0° 346° (NNW) 2,395 5.2 -22.2°
